Location: Ciserano
(45.5833°N, 9.6000°E)
Time: 06:16:12
(UTC+00:00)

Cosmos 1295 Rocket - Pass Details

Date: 20 April 2021
Orbit: 944 x 993 km, 82.9° (Epoch: 13 May)

Event Time Altitude Azimuth Distance (km) Brightness Sun altitude
Rises 23:57:29 0° 351° (N) 3,675 8.5 -32.3°
Reaches altitude 10° 23:59:59 10° 352° (N) 2,731 7.6 -32.2°
Enters shadow 00:05:34 73° 355° (N) 1,030 4.6 -32.0°
